owner,sensor,date,latitude,longitude,vertical_datum,direction_of_sea_water_velocity,sea_water_speed,upward_sea_water_velocity,qcFlag 
TABS,ioos:station:wmo:42045:1,2008-04-01T00:00:00Z,26.2168,-96.4998,2.0,82.81315104,27.57665861,-99999.0,'11111222,11111222,99999999' 
TABS,ioos:station:wmo:42045:1,2008-04-01T00:30:00Z,26.2168,-96.4998,2.0,82.73869055,20.33307158,-99999.0,'11111222,11111222,99999999' 
TABS,ioos:station:wmo:42045:1,2008-04-01T01:00:00Z,26.2168,-96.4998,2.0,97.92282508,14.07434546,-99999.0,'11111222,11111222,99999999' 
TABS,ioos:station:wmo:42045:1,2008-04-01T01:30:00Z,26.2168,-96.4998,2.0,90.0,18.36,-99999.0,'11111222,11111222,99999999' 
TABS,ioos:station:wmo:42045:1,2008-04-01T02:00:00Z,26.2168,-96.4998,2.0,97.15017036,19.76369652,-99999.0,'11111222,11111222,99999999' 
TABS,ioos:station:wmo:42045:1,2008-04-01T02:30:00Z,26.2168,-96.4998,2.0,115.3370053,17.9463311,-99999.0,'11111222,11111222,99999999' 
TABS,ioos:station:wmo:42045:1,2008-04-01T03:00:00Z,26.2168,-96.4998,2.0,109.3242509,18.94748796,-99999.0,'11111222,11111222,99999999' 
TABS,ioos:station:wmo:42045:1,2008-04-01T03:30:00Z,26.2168,-96.4998,2.0,111.3692818,17.97581987,-99999.0,'11111222,11111222,99999999' 
TABS,ioos:station:wmo:42045:1,2008-04-01T04:00:00Z,26.2168,-96.4998,2.0,112.9465345,18.21106532,-99999.0,'11111222,11111222,99999999' 
TABS,ioos:station:wmo:42045:1,2008-04-01T04:30:00Z,26.2168,-96.4998,2.0,122.1956586,10.84807817,-99999.0,'11111222,11111222,99999999' 
TABS,ioos:station:wmo:42045:1,2008-04-01T05:00:00Z,26.2168,-96.4998,2.0,139.2033754,12.73389179,-99999.0,'11111222,11111222,99999999' 
TABS,ioos:station:wmo:42045:1,2008-04-01T05:30:00Z,26.2168,-96.4998,2.0,158.5940724,14.52172166,-99999.0,'11111222,11111222,99999999' 
TABS,ioos:station:wmo:42045:1,2008-04-01T06:00:00Z,26.2168,-96.4998,2.0,139.751398,11.09728796,-99999.0,'11111222,11111222,99999999' 
TABS,ioos:station:wmo:42045:1,2008-04-01T06:30:00Z,26.2168,-96.4998,2.0,156.7381587,13.11620753,-99999.0,'11111222,11111222,99999999' 
TABS,ioos:station:wmo:42045:1,2008-04-01T07:00:00Z,26.2168,-96.4998,2.0,145.7913569,13.18021623,-99999.0,'11111222,11111222,99999999' 
TABS,ioos:station:wmo:42045:1,2008-04-01T07:30:00Z,26.2168,-96.4998,2.0,145.2173714,11.20143294,-99999.0,'11111222,11111222,99999999' 
TABS,ioos:station:wmo:42045:1,2008-04-01T08:00:00Z,26.2168,-96.4998,2.0,155.5999562,11.83725053,-99999.0,'11111222,11111222,99999999' 
TABS,ioos:station:wmo:42045:1,2008-04-01T08:30:00Z,26.2168,-96.4998,2.0,156.1277031,10.94646062,-99999.0,'11111222,11111222,99999999' 
TABS,ioos:station:wmo:42045:1,2008-04-01T09:00:00Z,26.2168,-96.4998,2.0,180.3485413,11.50021304,-99999.0,'11111222,11111222,99999999' 
TABS,ioos:station:wmo:42045:1,2008-04-01T09:30:00Z,26.2168,-96.4998,2.0,189.0515546,9.407151535,-99999.0,'11133222,11111222,99999999' 
TABS,ioos:station:wmo:42045:1,2008-04-01T10:00:00Z,26.2168,-96.4998,2.0,196.7286399,12.95843355,-99999.0,'11111222,11111222,99999999' 
TABS,ioos:station:wmo:42045:1,2008-04-01T10:30:00Z,26.2168,-96.4998,2.0,195.558978,12.22811515,-99999.0,'11111222,11111222,99999999' 
TABS,ioos:station:wmo:42045:1,2008-04-01T11:00:00Z,26.2168,-96.4998,2.0,188.3531279,11.97706558,-99999.0,'11111222,11111222,99999999' 
TABS,ioos:station:wmo:42045:1,2008-04-01T11:30:00Z,26.2168,-96.4998,2.0,223.2764096,9.875677192,-99999.0,'11133222,11111222,99999999' 
TABS,ioos:station:wmo:42045:1,2008-04-01T12:00:00Z,26.2168,-96.4998,2.0,211.2831456,7.991958458,-99999.0,'11133222,11111222,99999999' 
TABS,ioos:station:wmo:42045:1,2008-04-01T12:30:00Z,26.2168,-96.4998,2.0,205.7926468,8.296565554,-99999.0,'11133222,11111222,99999999' 
TABS,ioos:station:wmo:42045:1,2008-04-01T13:00:00Z,26.2168,-96.4998,2.0,236.5992524,10.9721101,-99999.0,'11111222,11111222,99999999' 
TABS,ioos:station:wmo:42045:1,2008-04-01T13:30:00Z,26.2168,-96.4998,2.0,240.2080444,10.64714516,-99999.0,'11111222,11111222,99999999' 
TABS,ioos:station:wmo:42045:1,2008-04-01T14:00:00Z,26.2168,-96.4998,2.0,241.6899343,8.666544871,-99999.0,'11133222,11111222,99999999' 
TABS,ioos:station:wmo:42045:1,2008-04-01T14:30:00Z,26.2168,-96.4998,2.0,255.0449673,9.532874698,-99999.0,'11133222,11111222,99999999' 
TABS,ioos:station:wmo:42045:1,2008-04-01T15:00:00Z,26.2168,-96.4998,2.0,247.3025794,17.70078529,-99999.0,'11111222,11111222,99999999' 
TABS,ioos:station:wmo:42045:1,2008-04-01T15:30:00Z,26.2168,-96.4998,2.0,268.1614537,7.794010521,-99999.0,'11133222,11111222,99999999' 
TABS,ioos:station:wmo:42045:1,2008-04-01T16:00:00Z,26.2168,-96.4998,2.0,266.0570593,7.417553505,-99999.0,'11133222,11111222,99999999' 
TABS,ioos:station:wmo:42045:1,2008-04-01T16:30:00Z,26.2168,-96.4998,2.0,291.8017794,12.22432411,-99999.0,'11111222,11111222,99999999' 
TABS,ioos:station:wmo:42045:1,2008-04-01T17:00:00Z,26.2168,-96.4998,2.0,290.4187987,8.771088872,-99999.0,'11133222,11111222,99999999' 
TABS,ioos:station:wmo:42045:1,2008-04-01T17:30:00Z,26.2168,-96.4998,2.0,311.6580791,9.824281144,-99999.0,'11133222,11111222,99999999' 
TABS,ioos:station:wmo:42045:1,2008-04-01T18:00:00Z,26.2168,-96.4998,2.0,335.3042722,8.089925834,-99999.0,'11133222,11111222,99999999' 
TABS,ioos:station:wmo:42045:1,2008-04-01T18:30:00Z,26.2168,-96.4998,2.0,3.433832792,5.008991915,-99999.0,'11133222,11111222,99999999' 
TABS,ioos:station:wmo:42045:1,2008-04-01T19:00:00Z,26.2168,-96.4998,2.0,354.1838442,7.006068798,-99999.0,'11133222,11111222,99999999' 
TABS,ioos:station:wmo:42045:1,2008-04-01T19:30:00Z,26.2168,-96.4998,2.0,19.58342745,7.100739398,-99999.0,'11133222,11111222,99999999' 
TABS,ioos:station:wmo:42045:1,2008-04-01T20:00:00Z,26.2168,-96.4998,2.0,30.89303679,6.9336931,-99999.0,'11133222,11111222,99999999' 
TABS,ioos:station:wmo:42045:1,2008-04-01T20:30:00Z,26.2168,-96.4998,2.0,66.15476786,7.445549006,-99999.0,'11133222,11111222,99999999' 
TABS,ioos:station:wmo:42045:1,2008-04-01T21:00:00Z,26.2168,-96.4998,2.0,85.53885918,13.37050859,-99999.0,'11111222,11111222,99999999' 
TABS,ioos:station:wmo:42045:1,2008-04-01T21:30:00Z,26.2168,-96.4998,2.0,65.55165223,10.65542585,-99999.0,'11111222,11111222,99999999' 
TABS,ioos:station:wmo:42045:1,2008-04-01T22:00:00Z,26.2168,-96.4998,2.0,96.36255512,8.482246165,-99999.0,'11133222,11111222,99999999' 
TABS,ioos:station:wmo:42045:1,2008-04-01T22:30:00Z,26.2168,-96.4998,2.0,6.775850784,1.017103731,-99999.0,'11133222,11111222,99999999' 
TABS,ioos:station:wmo:42045:1,2008-04-01T23:00:00Z,26.2168,-96.4998,2.0,301.9584557,1.284717868,-99999.0,'11133222,11111222,99999999' 
TABS,ioos:station:wmo:42045:1,2008-04-01T23:30:00Z,26.2168,-96.4998,2.0,314.5851371,5.854997865,-99999.0,'11133222,11111222,99999999' 
TABS,ioos:station:wmo:42045:1,2008-04-02T00:00:00Z,26.2168,-96.4998,2.0,59.91914727,2.114828598,-99999.0,'11133222,11111222,99999999' 
TABS,ioos:station:wmo:42045:1,2008-04-02T00:30:00Z,26.2168,-96.4998,2.0,277.3763155,3.115782406,-99999.0,'11133222,11111222,99999999' 
TABS,ioos:station:wmo:42045:1,2008-04-02T01:00:00Z,26.2168,-96.4998,2.0,304.2303526,2.648811054,-99999.0,'11133222,11111222,99999999' 
TABS,ioos:station:wmo:42045:1,2008-04-02T01:30:00Z,26.2168,-96.4998,2.0,309.8058989,2.499279896,-99999.0,'11133222,11111222,99999999' 
TABS,ioos:station:wmo:42045:1,2008-04-02T02:00:00Z,26.2168,-96.4998,2.0,42.15063733,1.564640534,-99999.0,'11133222,11111222,99999999' 
TABS,ioos:station:wmo:42045:1,2008-04-02T02:30:00Z,26.2168,-96.4998,2.0,220.4619224,3.128146416,-99999.0,'11133222,11111222,99999999' 
TABS,ioos:station:wmo:42045:1,2008-04-02T03:00:00Z,26.2168,-96.4998,2.0,217.1039377,1.95601636,-99999.0,'11133222,11111222,99999999' 
TABS,ioos:station:wmo:42045:1,2008-04-02T03:30:00Z,26.2168,-96.4998,2.0,261.1427401,6.689768307,-99999.0,'11133222,11111222,99999999' 
TABS,ioos:station:wmo:42045:1,2008-04-02T04:00:00Z,26.2168,-96.4998,2.0,278.202756,2.242944493,-99999.0,'11133222,11111222,99999999' 
TABS,ioos:station:wmo:42045:1,2008-04-02T04:30:00Z,26.2168,-96.4998,2.0,218.2602967,5.603650596,-99999.0,'11133222,11111222,99999999' 
TABS,ioos:station:wmo:42045:1,2008-04-02T05:00:00Z,26.2168,-96.4998,2.0,238.1722069,5.461135413,-99999.0,'11133222,11111222,99999999' 
TABS,ioos:station:wmo:42045:1,2008-04-02T05:30:00Z,26.2168,-96.4998,2.0,260.2130057,9.295267613,-99999.0,'11133222,11111222,99999999' 
TABS,ioos:station:wmo:42045:1,2008-04-02T06:00:00Z,26.2168,-96.4998,2.0,262.911632,5.753972541,-99999.0,'11133222,11111222,99999999' 
TABS,ioos:station:wmo:42045:1,2008-04-02T06:30:00Z,26.2168,-96.4998,2.0,241.1582531,5.742281776,-99999.0,'11133222,11111222,99999999' 
TABS,ioos:station:wmo:42045:1,2008-04-02T07:00:00Z,26.2168,-96.4998,2.0,264.5191461,10.15642654,-99999.0,'11111222,11111222,99999999' 
TABS,ioos:station:wmo:42045:1,2008-04-02T07:30:00Z,26.2168,-96.4998,2.0,277.7655688,13.32216199,-99999.0,'11111222,11111222,99999999' 
TABS,ioos:station:wmo:42045:1,2008-04-02T08:00:00Z,26.2168,-96.4998,2.0,290.8904826,11.44213704,-99999.0,'11111222,11111222,99999999' 
TABS,ioos:station:wmo:42045:1,2008-04-02T08:30:00Z,26.2168,-96.4998,2.0,286.5148196,10.09649939,-99999.0,'11111222,11111222,99999999' 
TABS,ioos:station:wmo:42045:1,2008-04-02T09:00:00Z,26.2168,-96.4998,2.0,302.5037078,13.6596486,-99999.0,'11111222,11111222,99999999' 
TABS,ioos:station:wmo:42045:1,2008-04-02T09:30:00Z,26.2168,-96.4998,2.0,306.9515604,14.09001419,-99999.0,'11111222,11111222,99999999' 
TABS,ioos:station:wmo:42045:1,2008-04-02T10:00:00Z,26.2168,-96.4998,2.0,308.2787244,14.07625305,-99999.0,'11111222,11111222,99999999' 
TABS,ioos:station:wmo:42045:1,2008-04-02T10:30:00Z,26.2168,-96.4998,2.0,320.926992,10.82,-99999.0,'11111222,11111222,99999999' 
TABS,ioos:station:wmo:42045:1,2008-04-02T11:00:00Z,26.2168,-96.4998,2.0,337.5958415,14.11548441,-99999.0,'11111222,11111222,99999999' 
TABS,ioos:station:wmo:42045:1,2008-04-02T11:30:00Z,26.2168,-96.4998,2.0,329.7688624,11.5393674,-99999.0,'11111222,11111222,99999999' 
TABS,ioos:station:wmo:42045:1,2008-04-02T12:00:00Z,26.2168,-96.4998,2.0,335.2314306,12.69816128,-99999.0,'11111222,11111222,99999999' 
TABS,ioos:station:wmo:42045:1,2008-04-02T12:30:00Z,26.2168,-96.4998,2.0,348.5854059,16.06782188,-99999.0,'11111222,11111222,99999999' 
TABS,ioos:station:wmo:42045:1,2008-04-02T13:00:00Z,26.2168,-96.4998,2.0,359.7132564,17.97022537,-99999.0,'11111222,11144222,99999999' 
TABS,ioos:station:wmo:42045:1,2008-04-02T13:30:00Z,26.2168,-96.4998,2.0,2.757565885,15.79829105,-99999.0,'11111222,11111222,99999999' 
TABS,ioos:station:wmo:42045:1,2008-04-02T14:00:00Z,26.2168,-96.4998,2.0,11.95133554,16.99844993,-99999.0,'11111222,11111222,99999999' 
TABS,ioos:station:wmo:42045:1,2008-04-02T14:30:00Z,26.2168,-96.4998,2.0,18.61134213,16.4502462,-99999.0,'11111222,11111222,99999999' 
TABS,ioos:station:wmo:42045:1,2008-04-02T15:00:00Z,26.2168,-96.4998,2.0,38.41611852,15.04747819,-99999.0,'11111222,11111222,99999999' 
TABS,ioos:station:wmo:42045:1,2008-04-02T15:30:00Z,26.2168,-96.4998,2.0,44.54377788,15.98112011,-99999.0,'11111222,11111222,99999999' 
TABS,ioos:station:wmo:42045:1,2008-04-02T16:00:00Z,26.2168,-96.4998,2.0,55.77813879,18.22546021,-99999.0,'11111222,11111222,99999999' 
TABS,ioos:station:wmo:42045:1,2008-04-02T16:30:00Z,26.2168,-96.4998,2.0,56.90767797,15.42150447,-99999.0,'11111222,11111222,99999999' 
TABS,ioos:station:wmo:42045:1,2008-04-02T17:00:00Z,26.2168,-96.4998,2.0,61.60473056,17.64263302,-99999.0,'11111222,11111222,99999999' 
TABS,ioos:station:wmo:42045:1,2008-04-02T17:30:00Z,26.2168,-96.4998,2.0,63.39875935,14.13642458,-99999.0,'11111222,11111222,99999999' 
TABS,ioos:station:wmo:42045:1,2008-04-02T18:00:00Z,26.2168,-96.4998,2.0,76.60403971,15.19338014,-99999.0,'11111222,11111222,99999999' 
TABS,ioos:station:wmo:42045:1,2008-04-02T18:30:00Z,26.2168,-96.4998,2.0,72.96688009,11.50464689,-99999.0,'11111222,11111222,99999999' 
TABS,ioos:station:wmo:42045:1,2008-04-02T19:00:00Z,26.2168,-96.4998,2.0,68.51103839,14.30432452,-99999.0,'11111222,11111222,99999999' 
TABS,ioos:station:wmo:42045:1,2008-04-02T19:30:00Z,26.2168,-96.4998,2.0,75.61142205,15.77481537,-99999.0,'11111222,11111222,99999999' 
TABS,ioos:station:wmo:42045:1,2008-04-02T20:00:00Z,26.2168,-96.4998,2.0,75.90712513,17.16667994,-99999.0,'11111222,11111222,99999999' 
TABS,ioos:station:wmo:42045:1,2008-04-02T20:30:00Z,26.2168,-96.4998,2.0,89.72186798,18.54021845,-99999.0,'11111222,11111222,99999999' 
TABS,ioos:station:wmo:42045:1,2008-04-02T21:00:00Z,26.2168,-96.4998,2.0,88.0239899,18.27086479,-99999.0,'11111222,11111222,99999999' 
TABS,ioos:station:wmo:42045:1,2008-04-02T21:30:00Z,26.2168,-96.4998,2.0,93.67507065,18.09721526,-99999.0,'11111222,11111222,99999999' 
TABS,ioos:station:wmo:42045:1,2008-04-02T22:00:00Z,26.2168,-96.4998,2.0,102.0145921,18.97567127,-99999.0,'11111222,11111222,99999999' 
TABS,ioos:station:wmo:42045:1,2008-04-02T22:30:00Z,26.2168,-96.4998,2.0,92.63367102,15.88678067,-99999.0,'11111222,11111222,99999999' 
TABS,ioos:station:wmo:42045:1,2008-04-02T23:00:00Z,26.2168,-96.4998,2.0,91.33015523,12.9234825,-99999.0,'11111222,11111222,99999999' 
TABS,ioos:station:wmo:42045:1,2008-04-02T23:30:00Z,26.2168,-96.4998,2.0,82.87500031,6.772296509,-99999.0,'11133222,11111222,99999999' 
TABS,ioos:station:wmo:42045:1,2008-04-03T00:00:00Z,26.2168,-96.4998,2.0,103.4777912,4.97706741,-99999.0,'11133222,11111222,99999999' 
TABS,ioos:station:wmo:42045:1,2008-04-03T00:30:00Z,26.2168,-96.4998,2.0,62.80689277,5.711260807,-99999.0,'11133222,11111222,99999999' 
TABS,ioos:station:wmo:42045:1,2008-04-03T01:00:00Z,26.2168,-96.4998,2.0,32.37766831,3.75353167,-99999.0,'11133222,11111222,99999999' 
TABS,ioos:station:wmo:42045:1,2008-04-03T01:30:00Z,26.2168,-96.4998,2.0,210.5099556,1.3,-99999.0,'11133222,11111222,99999999' 
TABS,ioos:station:wmo:42045:1,2008-04-03T02:00:00Z,26.2168,-96.4998,2.0,103.6005107,0.637887137,-99999.0,'11133222,11111222,99999999' 
TABS,ioos:station:wmo:42045:1,2008-04-03T02:30:00Z,26.2168,-96.4998,2.0,302.6281894,4.48829589,-99999.0,'11133222,11111222,99999999' 
TABS,ioos:station:wmo:42045:1,2008-04-03T03:00:00Z,26.2168,-96.4998,2.0,347.8611923,2.710608788,-99999.0,'11133222,11111222,99999999' 
TABS,ioos:station:wmo:42045:1,2008-04-03T03:30:00Z,26.2168,-96.4998,2.0,359.5617319,3.920114794,-99999.0,'11133222,11144222,99999999' 
TABS,ioos:station:wmo:42045:1,2008-04-03T04:00:00Z,26.2168,-96.4998,2.0,30.37651176,6.189709202,-99999.0,'11133222,11111222,99999999' 
TABS,ioos:station:wmo:42045:1,2008-04-03T04:30:00Z,26.2168,-96.4998,2.0,6.682601644,6.101450647,-99999.0,'11133222,11111222,99999999' 
TABS,ioos:station:wmo:42045:1,2008-04-03T05:00:00Z,26.2168,-96.4998,2.0,317.9022194,4.609175631,-99999.0,'11133222,11111222,99999999' 
TABS,ioos:station:wmo:42045:1,2008-04-03T05:30:00Z,26.2168,-96.4998,2.0,334.2777437,6.08276253,-99999.0,'11133222,11111222,99999999' 
TABS,ioos:station:wmo:42045:1,2008-04-03T06:00:00Z,26.2168,-96.4998,2.0,330.5439586,6.649586453,-99999.0,'11133222,11111222,99999999' 
TABS,ioos:station:wmo:42045:1,2008-04-03T06:30:00Z,26.2168,-96.4998,2.0,321.4244862,7.457305143,-99999.0,'11133222,11111222,99999999' 
TABS,ioos:station:wmo:42045:1,2008-04-03T07:00:00Z,26.2168,-96.4998,2.0,344.4059678,8.741790434,-99999.0,'11133222,11111222,99999999' 
TABS,ioos:station:wmo:42045:1,2008-04-03T07:30:00Z,26.2168,-96.4998,2.0,326.2448158,9.71835377,-99999.0,'11133222,11111222,99999999' 
TABS,ioos:station:wmo:42045:1,2008-04-03T08:00:00Z,26.2168,-96.4998,2.0,339.220124,14.06494223,-99999.0,'11111222,11111222,99999999' 
TABS,ioos:station:wmo:42045:1,2008-04-03T08:30:00Z,26.2168,-96.4998,2.0,328.0408268,13.2245378,-99999.0,'11111222,11111222,99999999' 
TABS,ioos:station:wmo:42045:1,2008-04-03T09:00:00Z,26.2168,-96.4998,2.0,333.2357017,15.41107394,-99999.0,'11111222,11111222,99999999' 
TABS,ioos:station:wmo:42045:1,2008-04-03T09:30:00Z,26.2168,-96.4998,2.0,351.7627082,19.61234815,-99999.0,'11111222,11111222,99999999' 
TABS,ioos:station:wmo:42045:1,2008-04-03T10:00:00Z,26.2168,-96.4998,2.0,357.0120548,19.5666042,-99999.0,'11111222,11111222,99999999' 
TABS,ioos:station:wmo:42045:1,2008-04-03T10:30:00Z,26.2168,-96.4998,2.0,353.2536883,19.15262123,-99999.0,'11111222,11111222,99999999' 
TABS,ioos:station:wmo:42045:1,2008-04-03T11:00:00Z,26.2168,-96.4998,2.0,342.0508494,20.89708114,-99999.0,'11111222,11111222,99999999' 
TABS,ioos:station:wmo:42045:1,2008-04-03T11:30:00Z,26.2168,-96.4998,2.0,355.0007434,18.35985022,-99999.0,'11111222,11111222,99999999' 
TABS,ioos:station:wmo:42045:1,2008-04-03T12:00:00Z,26.2168,-96.4998,2.0,349.8450789,28.41515441,-99999.0,'11111222,11111222,99999999' 
TABS,ioos:station:wmo:42045:1,2008-04-03T12:30:00Z,26.2168,-96.4998,2.0,355.3268594,26.87936383,-99999.0,'11111222,11111222,99999999' 
TABS,ioos:station:wmo:42045:1,2008-04-03T13:00:00Z,26.2168,-96.4998,2.0,4.53200294,30.37496337,-99999.0,'11111222,11111222,99999999' 
TABS,ioos:station:wmo:42045:1,2008-04-03T13:30:00Z,26.2168,-96.4998,2.0,7.021151523,31.41556939,-99999.0,'11111222,11111222,99999999' 
TABS,ioos:station:wmo:42045:1,2008-04-03T14:00:00Z,26.2168,-96.4998,2.0,7.096243695,31.89429573,-99999.0,'11111222,11111222,99999999' 
TABS,ioos:station:wmo:42045:1,2008-04-03T14:30:00Z,26.2168,-96.4998,2.0,13.34919303,32.96053701,-99999.0,'11111222,11111222,99999999' 
TABS,ioos:station:wmo:42045:1,2008-04-03T15:00:00Z,26.2168,-96.4998,2.0,14.06106439,33.83372282,-99999.0,'11111222,11111222,99999999' 
TABS,ioos:station:wmo:42045:1,2008-04-03T15:30:00Z,26.2168,-96.4998,2.0,22.57940843,32.55539279,-99999.0,'11111222,11111222,99999999' 
TABS,ioos:station:wmo:42045:1,2008-04-03T16:00:00Z,26.2168,-96.4998,2.0,21.29327172,34.11914712,-99999.0,'11111222,11111222,99999999' 
TABS,ioos:station:wmo:42045:1,2008-04-03T16:30:00Z,26.2168,-96.4998,2.0,28.23466489,35.15249351,-99999.0,'11111222,11111222,99999999' 
TABS,ioos:station:wmo:42045:1,2008-04-03T17:00:00Z,26.2168,-96.4998,2.0,31.79065213,33.63608925,-99999.0,'11111222,11111222,99999999' 
TABS,ioos:station:wmo:42045:1,2008-04-03T17:30:00Z,26.2168,-96.4998,2.0,31.6807265,36.46345294,-99999.0,'11111222,11111222,99999999' 
TABS,ioos:station:wmo:42045:1,2008-04-03T18:00:00Z,26.2168,-96.4998,2.0,41.24955644,33.94311123,-99999.0,'11111222,11111222,99999999' 
TABS,ioos:station:wmo:42045:1,2008-04-03T18:30:00Z,26.2168,-96.4998,2.0,38.66595911,29.67457666,-99999.0,'11111222,11111222,99999999' 
TABS,ioos:station:wmo:42045:1,2008-04-03T19:00:00Z,26.2168,-96.4998,2.0,45.05003606,32.45621358,-99999.0,'11111222,11111222,99999999' 
TABS,ioos:station:wmo:42045:1,2008-04-03T19:30:00Z,26.2168,-96.4998,2.0,46.76537946,32.36549552,-99999.0,'11111222,11111222,99999999' 
TABS,ioos:station:wmo:42045:1,2008-04-03T20:00:00Z,26.2168,-96.4998,2.0,50.477126,32.96733687,-99999.0,'11111222,11111222,99999999' 
TABS,ioos:station:wmo:42045:1,2008-04-03T20:30:00Z,26.2168,-96.4998,2.0,50.67294748,32.04746792,-99999.0,'11111222,11111222,99999999' 
TABS,ioos:station:wmo:42045:1,2008-04-03T21:00:00Z,26.2168,-96.4998,2.0,56.23623782,30.15630117,-99999.0,'11111222,11111222,99999999' 
TABS,ioos:station:wmo:42045:1,2008-04-03T21:30:00Z,26.2168,-96.4998,2.0,62.44500737,29.50708559,-99999.0,'11111222,11111222,99999999' 
TABS,ioos:station:wmo:42045:1,2008-04-03T22:00:00Z,26.2168,-96.4998,2.0,64.61480176,26.4985509,-99999.0,'11111222,11111222,99999999' 
TABS,ioos:station:wmo:42045:1,2008-04-03T22:30:00Z,26.2168,-96.4998,2.0,68.89821035,28.13679797,-99999.0,'11111222,11111222,99999999' 
TABS,ioos:station:wmo:42045:1,2008-04-03T23:00:00Z,26.2168,-96.4998,2.0,67.87883845,29.60958291,-99999.0,'11111222,11111222,99999999' 
TABS,ioos:station:wmo:42045:1,2008-04-03T23:30:00Z,26.2168,-96.4998,2.0,67.0039775,28.23368555,-99999.0,'11111222,11111222,99999999' 
TABS,ioos:station:wmo:42045:1,2008-04-04T00:00:00Z,26.2168,-96.4998,2.0,71.00131769,25.71056203,-99999.0,'11111222,11111222,99999999' 
TABS,ioos:station:wmo:42045:1,2008-04-04T00:30:00Z,26.2168,-96.4998,2.0,79.3203462,26.38706122,-99999.0,'11111222,11111222,99999999' 
TABS,ioos:station:wmo:42045:1,2008-04-04T01:00:00Z,26.2168,-96.4998,2.0,74.02324652,15.04098401,-99999.0,'11111222,11111222,99999999' 
TABS,ioos:station:wmo:42045:1,2008-04-04T01:30:00Z,26.2168,-96.4998,2.0,86.95724798,18.08549695,-99999.0,'11111222,11111222,99999999' 
TABS,ioos:station:wmo:42045:1,2008-04-04T02:00:00Z,26.2168,-96.4998,2.0,80.65084709,17.4822224,-99999.0,'11111222,11111222,99999999' 
TABS,ioos:station:wmo:42045:1,2008-04-04T02:30:00Z,26.2168,-96.4998,2.0,81.98109824,17.49102627,-99999.0,'11111222,11111222,99999999' 
TABS,ioos:station:wmo:42045:1,2008-04-04T03:00:00Z,26.2168,-96.4998,2.0,83.42334925,16.58916514,-99999.0,'11111222,11111222,99999999' 
TABS,ioos:station:wmo:42045:1,2008-04-04T03:30:00Z,26.2168,-96.4998,2.0,90.38817594,14.76033875,-99999.0,'11111222,11111222,99999999' 
TABS,ioos:station:wmo:42045:1,2008-04-04T04:00:00Z,26.2168,-96.4998,2.0,104.7728816,14.90262057,-99999.0,'11111222,11111222,99999999' 
TABS,ioos:station:wmo:42045:1,2008-04-04T04:30:00Z,26.2168,-96.4998,2.0,111.6683085,15.19363354,-99999.0,'11111222,11111222,99999999' 
TABS,ioos:station:wmo:42045:1,2008-04-04T05:00:00Z,26.2168,-96.4998,2.0,106.5522136,12.32056005,-99999.0,'11111222,11111222,99999999' 
TABS,ioos:station:wmo:42045:1,2008-04-04T05:30:00Z,26.2168,-96.4998,2.0,107.066734,15.23070911,-99999.0,'11111222,11111222,99999999' 
TABS,ioos:station:wmo:42045:1,2008-04-04T06:00:00Z,26.2168,-96.4998,2.0,107.8472172,15.10699507,-99999.0,'11111222,11111222,99999999' 
TABS,ioos:station:wmo:42045:1,2008-04-04T06:30:00Z,26.2168,-96.4998,2.0,115.3090129,11.01751787,-99999.0,'11111222,11111222,99999999' 
TABS,ioos:station:wmo:42045:1,2008-04-04T07:00:00Z,26.2168,-96.4998,2.0,107.9677882,11.24859547,-99999.0,'11111222,11111222,99999999' 
TABS,ioos:station:wmo:42045:1,2008-04-04T07:30:00Z,26.2168,-96.4998,2.0,123.7262978,13.12975628,-99999.0,'11111222,11111222,99999999' 
TABS,ioos:station:wmo:42045:1,2008-04-04T08:00:00Z,26.2168,-96.4998,2.0,107.131546,5.839075269,-99999.0,'11133222,11111222,99999999' 
TABS,ioos:station:wmo:42045:1,2008-04-04T08:30:00Z,26.2168,-96.4998,2.0,101.7436569,5.699298202,-99999.0,'11133222,11111222,99999999' 
TABS,ioos:station:wmo:42045:1,2008-04-04T09:00:00Z,26.2168,-96.4998,2.0,112.0196644,5.361063327,-99999.0,'11133222,11111222,99999999' 
TABS,ioos:station:wmo:42045:1,2008-04-04T09:30:00Z,26.2168,-96.4998,2.0,70.61365264,5.332335323,-99999.0,'11133222,11111222,99999999' 
TABS,ioos:station:wmo:42045:1,2008-04-04T10:00:00Z,26.2168,-96.4998,2.0,5.819167753,4.734395421,-99999.0,'11133222,11111222,99999999' 
TABS,ioos:station:wmo:42045:1,2008-04-04T10:30:00Z,26.2168,-96.4998,2.0,337.7396803,2.085425616,-99999.0,'11133222,11111222,99999999' 
TABS,ioos:station:wmo:42045:1,2008-04-04T11:00:00Z,26.2168,-96.4998,2.0,8.917410413,4.838481167,-99999.0,'11133222,11111222,99999999' 
TABS,ioos:station:wmo:42045:1,2008-04-04T11:30:00Z,26.2168,-96.4998,2.0,335.1333406,3.923786437,-99999.0,'11133222,11111222,99999999' 
TABS,ioos:station:wmo:42045:1,2008-04-04T12:00:00Z,26.2168,-96.4998,2.0,9.563003927,6.561173675,-99999.0,'11133222,11111222,99999999' 
TABS,ioos:station:wmo:42045:1,2008-04-04T12:30:00Z,26.2168,-96.4998,2.0,357.433119,10.27030671,-99999.0,'11111222,11111222,99999999' 
TABS,ioos:station:wmo:42045:1,2008-04-04T13:00:00Z,26.2168,-96.4998,2.0,0.442828958,11.65034763,-99999.0,'11111222,11111222,99999999' 
TABS,ioos:station:wmo:42045:1,2008-04-04T13:30:00Z,26.2168,-96.4998,2.0,358.4222171,10.89413145,-99999.0,'11111222,11111222,99999999' 
TABS,ioos:station:wmo:42045:1,2008-04-04T14:00:00Z,26.2168,-96.4998,2.0,358.5601205,14.32452442,-99999.0,'11111222,11111222,99999999' 
TABS,ioos:station:wmo:42045:1,2008-04-04T14:30:00Z,26.2168,-96.4998,2.0,350.1502972,17.01075248,-99999.0,'11111222,11111222,99999999' 
TABS,ioos:station:wmo:42045:1,2008-04-04T15:00:00Z,26.2168,-96.4998,2.0,352.5501984,19.89797226,-99999.0,'11111222,11111222,99999999' 
TABS,ioos:station:wmo:42045:1,2008-04-04T15:30:00Z,26.2168,-96.4998,2.0,355.2170351,24.34478384,-99999.0,'11111222,11111222,99999999' 
TABS,ioos:station:wmo:42045:1,2008-04-04T16:00:00Z,26.2168,-96.4998,2.0,8.697196786,26.58568788,-99999.0,'11111222,11111222,99999999' 